DW1824 Weather Reports


time (UTC)temp
C
wind
direction
speed
KPH
gust
KPH
rain 1hr
cm
rain 24hr
cm
rain mn
cm
humidity
%
barometer
mb
20260504211334 26 191 4.8 12.9 0.00 0.00 0.00 65 1012.0
20260504210339 26 139 4.8 11.3 0.00 0.00 0.00 63 1012.1
20260504205327 26 145 4.8 9.7 0.00 0.00 0.00 63 1011.9
20260504204338 26 175 3.2 11.3 0.00 0.00 0.00 64 1012.3
20260504203323 27 140 3.2 14.5 0.00 0.00 0.00 62 1012.4
20260504202327 27 164 3.2 11.3 0.00 0.00 0.00 62 1012.4
20260504201334 27 163 4.8 11.3 0.00 0.00 0.00 61 1012.6
20260504200338 26 154 3.2 12.9 0.00 0.00 0.00 60 1012.9
20260504195326 26 173 3.2 8.0 0.00 0.00 0.00 61 1013.0
20260504194333 26 144 4.8 11.3 0.00 0.00 0.00 62 1013.1
20260504193357 26 237 4.8 11.3 0.00 0.00 0.00 63 1013.3
20260504192326 26 208 3.2 11.3 0.00 0.00 0.00 62 1013.6
20260504191334 26 179 4.8 11.3 0.00 0.00 0.00 61 1013.6
20260504190341 26 150 6.4 12.9 0.00 0.00 0.00 64 1013.7
20260504185328 26 192 4.8 12.9 0.00 0.00 0.00 63 1013.7
20260504184334 26 169 3.2 8.0 0.00 0.00 0.00 62 1013.7
20260504183340 26 134 6.4 14.5 0.00 0.00 0.00 64 1014.1
20260504182331 25 192 4.8 11.3 0.00 0.00 0.00 64 1014.2
20260504181337 26 148 4.8 12.9 0.00 0.00 0.00 64 1014.3
20260504180341 26 170 6.4 14.5 0.00 0.00 0.00 62 1014.5
20260504175327 25 137 3.2 11.3 0.00 0.00 0.00 64 1014.3
20260504174354 26 181 4.8 19.3 0.00 0.00 0.00 64 1014.6
20260504173338 25 162 4.8 9.7 0.00 0.00 0.00 65 1014.9
20260504172345 25 169 6.4 12.9 0.00 0.00 0.00 65 1015.0
20260504171337 25 167 6.4 17.7 0.00 0.00 0.00 64 1015.0
20260504170400 25 134 8.0 14.5 0.00 0.00 0.00 64 1015.2
20260504160333 24 149 8.0 16.1 0.00 0.00 0.00 67 1016.0
20260504150351 22 160 3.2 12.9 0.00 0.00 0.00 71 1016.0
20260504141335 21 141 3.2 11.3 0.00 0.00 0.00 75 1016.1
20260504140339 20 137 4.8 12.9 0.00 0.00 0.00 77 1016.4
20260504130334 17 131 3.2 8.0 0.00 0.00 0.00 80 1016.2
20260504110338 15 123 1.6 3.2 0.00 0.00 0.00 82 1016.0
20260504100325 15 152 1.6 4.8 0.00 0.00 0.00 80 1015.9
20260504081341 16 147 1.6 3.2 0.00 0.00 0.00 82 1016.6
20260504080327 16 131 1.6 3.2 0.00 0.00 0.00 82 1016.6
20260504070332 16 171 0.0 0.0 0.00 0.00 0.00 84 1017.7
20260504050342 17 187 0.0 3.2 0.00 0.00 0.00 77 1018.8
20260504045326 17 165 0.0 1.6 0.00 0.00 0.00 77 1018.9
20260504044356 17 161 0.0 1.6 0.00 0.00 0.00 76 1018.8
20260504043342 17 161 0.0 1.6 0.00 0.00 0.00 76 1018.9
20260504042331 17 161 0.0 1.6 0.00 0.00 0.00 75 1018.8
20260504041402 17 161 0.0 1.6 0.00 0.00 0.00 74 1018.9
20260504040326 17 150 0.0 3.2 0.00 0.00 0.00 73 1019.1
20260504035333 18 160 0.0 1.6 0.00 0.00 0.00 73 1018.9
20260504034340 18 183 0.0 1.6 0.00 0.00 0.00 73 1019.0
20260504033328 18 185 0.0 3.2 0.00 0.00 0.00 73 1018.8
20260504032336 18 185 0.0 1.6 0.00 0.00 0.00 71 1018.8
20260504031341 18 185 0.0 1.6 0.00 0.00 0.00 70 1018.9
20260504030342 18 168 1.6 3.2 0.00 0.00 0.00 70 1018.6
20260504025345 19 162 1.6 3.2 0.00 0.00 0.00 69 1018.5
20260504024331 19 137 3.2 8.0 0.00 0.00 0.00 69 1018.5
20260504023353 19 135 3.2 8.0 0.00 0.00 0.00 68 1018.4
20260504021329 20 135 3.2 8.0 0.00 0.00 0.00 66 1018.2
20260504020334 20 131 4.8 9.7 0.00 0.00 0.00 65 1018.1
20260504015339 20 131 4.8 9.7 0.00 0.00 0.00 65 1018.0
20260504014325 20 140 3.2 4.8 0.00 0.00 0.00 65 1017.9
20260504013333 21 140 3.2 4.8 0.00 0.00 0.00 63 1017.9
20260504012340 21 133 3.2 8.0 0.00 0.00 0.00 62 1017.9
20260504011327 21 129 3.2 6.4 0.00 0.00 0.00 61 1017.7
20260504010328 22 130 3.2 6.4 0.00 0.00 0.00 60 1017.8
20260504005337 22 135 4.8 8.0 0.00 0.00 0.00 57 1017.7
20260504004326 23 135 4.8 12.9 0.00 0.00 0.00 55 1017.7
20260504003332 23 146 3.2 3.2 0.00 0.00 0.00 54 1017.7
20260504002338 23 126 0.0 1.6 0.00 0.00 0.00 53 1017.9
20260504001344 24 126 1.6 3.2 0.00 0.00 0.00 50 1017.8
20260504000346 24 126 3.2 4.8 0.00 0.00 0.00 46 1017.9
20260503235331 24 128 3.2 8.0 0.00 0.00 0.00 44 1017.9
20260503234357 25 140 1.6 6.4 0.00 0.00 0.00 42 1017.9
20260503233327 25 150 1.6 4.8 0.00 0.00 0.00 40 1018.0
20260503232352 25 138 1.6 9.7 0.00 0.00 0.00 41 1018.0
20260503231336 25 113 4.8 12.9 0.00 0.00 0.00 40 1018.1
20260503230341 25 147 3.2 9.7 0.00 0.00 0.00 43 1018.3
20260503225328 25 146 3.2 8.0 0.00 0.00 0.00 45 1018.2
20260503224354 25 144 3.2 12.9 0.00 0.00 0.00 44 1018.4
20260503223336 25 135 6.4 12.9 0.00 0.00 0.00 43 1018.5
20260503222325 25 138 4.8 11.3 0.00 0.00 0.00 41 1018.7
20260503221333 25 123 3.2 6.4 0.00 0.00 0.00 43 1018.6
20260503220337 25 152 4.8 11.3 0.00 0.00 0.00 41 1019.0
20260503215325 26 154 3.2 8.0 0.00 0.00 0.00 45 1019.1
20260503214334 25 151 4.8 11.3 0.00 0.00 0.00 42 1019.0
20260503213336 25 142 3.2 8.0 0.00 0.00 0.00 44 1019.2
20260503212324 25 143 3.2 11.3 0.00 0.00 0.00 45 1019.3